Weather History for Lufkin, TX

Change the Weather History Date:

Wednesday, September 25, 2013

  Actual Average Record
Temperature  
Mean Temperature 77 °F 74 °F  
Max Temperature 93 °F 86 °F 101 °F (1931)
Min Temperature 60 °F 63 °F 44 °F (1989)
Degree Days  
Heating Degree Days 0 0  
Month to date heating degree days 0 0  
Since 1 July heating degree days 0 0  
Cooling Degree Days 12 10  
Month to date cooling degree days 408 330  
Year to date cooling degree days 2575 2353  
Growing Degree Days 26 (Base 50)    
Moisture  
Dew Point 56 °F    
Average Humidity 60    
Maximum Humidity 100    
Minimum Humidity 20    
Precipitation  
Precipitation 0.00 in 0.13 in 2.16 in (1980)
Month to date precipitation 3.68 3.44  
Year to date precipitation 29.58 34.03  
Snow  
Snow 0.00 in - - ()
Month to date snowfall 0.0  
Since 1 July snowfall 0.0  
Since 1 September snowfall 0.0  
Snow Depth 0.00 in    
Sea Level Pressure  
Sea Level Pressure 29.83 in    
Wind  
Wind Speed 2 mph (North)    
Max Wind Speed 10 mph    
Max Gust Speed 17 mph    
Visibility 10 miles    
Events      
T = Trace of Precipitation, MM = Missing Value Source: NWS Daily Summary

Daily Weather History Graph

Daily Weather History Graph

Search for Another Location

Airport:

Trip Planner

Search our weather history database for the weather conditions in past years. The results will help you decide how hot, cold, wet, or windy it might be!

Date:

Astronomy

Sep. 25, 2013 Rise Set
Actual Time 7:09 AM CDT 7:11 PM CDT
Civil Twilight 6:45 AM CDT 7:35 PM CDT
Nautical Twilight 6:16 AM CDT 8:03 PM CDT
Astronomical Twilight 5:48 AM CDT 8:31 PM CDT
Moon 11:38 PM CDT (9/25) 12:55 PM CDT (9/25)
Length of Visible Light 12h 50m
Length of Day
12h 02m
Waning Gibbous, 64% of the Moon is Illuminated
Sep 25
Waning Gibbous
Sep 26
Last Quarter
Oct 4
New
Oct 11
First Quarter
Oct 18
Full

Hourly Weather History & Observations

Time (CDT) Temp. Heat Index Dew Point Humidity Pressure Visibility Wind Dir Wind Speed Gust Speed Precip Events Conditions
12:53 AM 66.9 °F - 61.0 °F 81% 29.83 in 10.0 mi Calm Calm - N/A   Clear
1:53 AM 64.9 °F - 62.1 °F 90% 29.83 in 10.0 mi Calm Calm - N/A   Clear
2:53 AM 64.0 °F - 62.1 °F 93% 29.83 in 10.0 mi Calm Calm - N/A   Clear
3:53 AM 64.9 °F - 62.1 °F 90% 29.83 in 10.0 mi NW 3.5 mph - N/A   Clear
4:53 AM 63.0 °F - 61.0 °F 93% 29.83 in 10.0 mi Calm Calm - N/A   Clear
5:53 AM 62.1 °F - 61.0 °F 96% 29.84 in 9.0 mi Calm Calm - N/A   Clear
6:53 AM 61.0 °F - 59.0 °F 93% 29.85 in 10.0 mi Calm Calm - N/A   Clear
7:53 AM 61.0 °F - 60.1 °F 97% 29.87 in 9.0 mi Calm Calm - N/A   Clear
8:53 AM 71.1 °F - 62.1 °F 73% 29.87 in 10.0 mi Calm Calm - N/A   Clear
9:53 AM 79.0 °F - 59.0 °F 50% 29.88 in 10.0 mi East 4.6 mph - N/A   Clear
10:53 AM 84.0 °F 83.0 °F 55.9 °F 38% 29.88 in 10.0 mi East 3.5 mph - N/A   Clear
11:53 AM 88.0 °F 85.7 °F 53.1 °F 30% 29.88 in 10.0 mi Calm Calm - N/A   Clear
12:53 PM 89.1 °F - 50.0 °F 26% 29.86 in 10.0 mi North 4.6 mph - N/A   Clear
1:53 PM 91.0 °F - 48.0 °F 23% 29.83 in 10.0 mi Variable 6.9 mph - N/A   Clear
2:53 PM 91.9 °F - 44.1 °F 19% 29.81 in 10.0 mi North 8.1 mph - N/A   Clear
3:53 PM 91.9 °F - 46.9 °F 21% 29.80 in 10.0 mi NNW 5.8 mph - N/A   Clear
4:53 PM 91.9 °F - 48.0 °F 22% 29.78 in 10.0 mi North 9.2 mph - N/A   Clear
5:53 PM 91.0 °F - 46.0 °F 21% 29.78 in 10.0 mi Calm Calm - N/A   Clear
6:53 PM 84.9 °F - 51.1 °F 31% 29.78 in 10.0 mi Calm Calm - N/A   Clear
7:53 PM 75.0 °F - 57.9 °F 55% 29.79 in 10.0 mi Calm Calm - N/A   Clear
8:53 PM 70.0 °F - 57.9 °F 65% 29.81 in 10.0 mi Calm Calm - N/A   Clear
9:53 PM 66.9 °F - 59.0 °F 76% 29.82 in 10.0 mi Calm Calm - N/A   Clear
10:53 PM 66.0 °F - 59.0 °F 78% 29.83 in 10.0 mi Calm Calm - N/A   Clear
11:53 PM 64.0 °F - 59.0 °F 84% 29.83 in 10.0 mi Calm Calm - N/A   Clear